Find Starlink 34985

NORAD ID: 65379 Int'l Des: 2025-191 Owner: SPXS Country: US Constellation: starlink operational
LEOCIRCULARRETROGRADESSO

リアルタイム位置

3D地球を読み込み中...

Starlink 34985について

説明を読み込み中...

次回通過

Passes for default location (London). Set your location on the main map for personalized predictions.

高度履歴

Loading altitude history...

軌道要素

1 65379U 25191A 26103.89597062 .00000065 00000-0 87500-5 0 9992
2 65379 97.6035 336.1724 0003125 86.2459 273.9125 15.05636528 35562
Epoch: Apr 13, 2026 • Age: 14 hours

現在のステータス

高度 568.3 km
速度 7.57 km/s
衛星直下点 -44.12°S, 137.85°E
打ち上げ日 Aug 30, 2025
運用期間 0.6 years
タイプ internet

技術仕様

分類 Payload
質量 575.00 kg
乾燥質量 530.00 kg
総質量 575.00 kg
長さ 0.30 m
直径 4.10 m
スパン 29.00 m
形状 Box + pan
製造者 SPXS
バスタイプ Starlink V2MO
フェーズステータス In Orbit
所有者/国 SPXS/US

Most Searched